Weather History for Santa Ana, CA

Change the Weather History Date:

Sunday, March 13, 2011

  Actual Average Record
Temperature  
Mean Temperature 59 °F 59 °F  
Max Temperature 66 °F 67 °F 76 °F (2007)
Min Temperature 51 °F 51 °F 42 °F (2006)
Degree Days  
Heating Degree Days 6 6  
Month to date heating degree days 77 83  
Since 1 July heating degree days 822 989  
Cooling Degree Days 0 0  
Month to date cooling degree days 0 0  
Year to date cooling degree days 4 8  
Growing Degree Days 8 (Base 50)    
Moisture  
Dew Point 49 °F    
Average Humidity 73    
Maximum Humidity 83    
Minimum Humidity 63    
Precipitation  
Precipitation 0.00 in 0.04 in 0.84 in (1996)
Month to date precipitation 0.16 1.34  
Year to date precipitation 2.79 7.20  
Since 1 July precipitation 15.44 11.57  
Snow  
Snow 0.00 in - - ()
Month to date snowfall 0.0  
Year to date snowfall 0.0  
Since 1 July snowfall 0.0  
Snow Depth 0.00 in    
Sea Level Pressure  
Sea Level Pressure 30.17 in    
Wind  
Wind Speed 3 mph (SW)    
Max Wind Speed 12 mph    
Max Gust Speed 15 mph    
Visibility 9 miles    
Events      
T = Trace of Precipitation, MM = Missing Value Source: NWS Daily Summary

Daily Weather History Graph

Daily Weather History Graph

Search for Another Location

Airport:

Trip Planner

Search our weather history database for the weather conditions in past years. The results will help you decide how hot, cold, wet, or windy it might be!

Date:

Astronomy

Mar. 13, 2011 Rise Set
Actual Time 7:04 AM PDT 6:57 PM PDT
Civil Twilight 6:39 AM PDT 7:22 PM PDT
Nautical Twilight 6:11 AM PDT 7:51 PM PDT
Astronomical Twilight 5:42 AM PDT 8:20 PM PDT
Moon 12:34 PM PDT (3/13) 3:23 AM PDT (3/13)
Length of Visible Light 12h 42m
Length of Day
11h 52m
First Quarter, 58% of the Moon is Illuminated
Mar 13
First Quarter
Mar 19
Full
Mar 26
Last Quarter
Apr 3
New
Apr 11
First Quarter

Hourly Weather History & Observations

Time (PDT) Temp. Dew Point Humidity Pressure Visibility Wind Dir Wind Speed Gust Speed Precip Events Conditions
12:53 AM 54.0 °F 48.9 °F 83% 30.12 in 9.0 mi Calm Calm - N/A   Clear
1:53 AM 53.1 °F 48.0 °F 83% 30.12 in 10.0 mi Calm Calm - N/A   Clear
3:53 AM 51.1 °F 46.9 °F 86% 30.10 in 9.0 mi Calm Calm - N/A   Clear
4:53 AM 52.0 °F 46.9 °F 83% 30.12 in 8.0 mi Calm Calm - N/A   Partly Cloudy
5:49 AM 51.8 °F 46.4 °F 82% 30.14 in 8.0 mi Calm Calm - N/A   Scattered Clouds
5:53 AM 51.1 °F 46.9 °F 86% 30.14 in 8.0 mi Calm Calm - N/A   Scattered Clouds
6:12 AM 51.8 °F 46.4 °F 82% 30.14 in 9.0 mi Calm Calm - N/A   Mostly Cloudy
6:15 AM 51.8 °F 46.4 °F 82% 30.14 in 8.0 mi Calm Calm - N/A   Scattered Clouds
6:53 AM 52.0 °F 46.9 °F 83% 30.16 in 8.0 mi Calm Calm - N/A   Scattered Clouds
7:01 AM 51.8 °F 46.4 °F 82% 30.16 in 9.0 mi Calm Calm - N/A   Mostly Cloudy
7:53 AM 53.1 °F 48.0 °F 83% 30.17 in 8.0 mi Calm Calm - N/A   Mostly Cloudy
8:19 AM 53.6 °F 48.2 °F 82% 30.18 in 8.0 mi Variable 3.5 mph - N/A   Overcast
8:53 AM 55.9 °F 50.0 °F 80% 30.19 in 7.0 mi Calm Calm - N/A   Overcast
9:24 AM 57.2 °F 50.0 °F 77% 30.19 in 7.0 mi Calm Calm - N/A   Scattered Clouds
9:53 AM 57.0 °F 50.0 °F 77% 30.19 in 8.0 mi Calm Calm - N/A   Partly Cloudy
10:53 AM 61.0 °F 50.0 °F 67% 30.20 in 10.0 mi Variable 3.5 mph - N/A   Scattered Clouds
11:53 AM 63.0 °F 52.0 °F 67% 30.20 in 10.0 mi SSW 8.1 mph - N/A   Scattered Clouds
12:53 PM 63.0 °F 51.1 °F 65% 30.19 in 10.0 mi Variable 3.5 mph - N/A   Scattered Clouds
1:53 PM 64.0 °F 51.1 °F 63% 30.17 in 8.0 mi West 6.9 mph - N/A   Clear
2:53 PM 64.0 °F 51.1 °F 63% 30.14 in 10.0 mi SSW 8.1 mph - N/A   Mostly Cloudy
3:53 PM 64.0 °F 52.0 °F 65% 30.12 in 10.0 mi SSW 10.4 mph - N/A   Mostly Cloudy
4:53 PM 63.0 °F 51.1 °F 65% 30.14 in 10.0 mi SW 9.2 mph - N/A   Mostly Cloudy
5:53 PM 60.1 °F 51.1 °F 72% 30.15 in 10.0 mi West 6.9 mph - N/A   Scattered Clouds
6:53 PM 59.0 °F 51.1 °F 75% 30.17 in 10.0 mi SSW 4.6 mph - N/A   Scattered Clouds
7:53 PM 57.9 °F 50.0 °F 75% 30.19 in 10.0 mi Calm Calm - N/A   Partly Cloudy
8:53 PM 57.9 °F 51.1 °F 78% 30.20 in 10.0 mi Calm Calm - N/A   Partly Cloudy
9:53 PM 57.9 °F 51.1 °F 78% 30.21 in 9.0 mi Calm Calm - N/A   Clear
10:53 PM 57.0 °F 50.0 °F 77% 30.21 in 9.0 mi WNW 3.5 mph - N/A   Clear
11:53 PM 55.9 °F 48.9 °F 77% 30.21 in 9.0 mi Calm Calm - N/A   Clear
12:53 AM 55.0 °F 50.0 °F 83% 30.19 in 8.0 mi Calm Calm - N/A   Clear